Location: *
(37.4917°N, 71.5558°E)
Time: 21:19:28
(UTC+00:00)

Cosmos 967 Rocket - Pass Details

Date: 09 April 2020
Orbit: 943 x 994 km, 65.8° (Epoch: 31 May)

Event Time Altitude Azimuth Distance (km) Brightness Sun altitude
Rises 22:40:55 0° 330° (NNW) 3,712 7.6 -23.9°
Reaches altitude 10° 22:43:30 10° 330° (NNW) 2,756 6.9 -23.4°
Maximum altitude 22:49:59 88° 244° (WSW) 988 4.4 -22.3°
Drops below altitude 10° 22:56:22 10° 154° (SSE) 2,711 6.8 -21.2°
Sets 22:58:53 0° 154° (SSE) 3,648 7.5 -20.8°
